This is the latest recevied weather packets stored in our database for station/object AI5YA-13. If no packets are shown the sender has not sent any weather packets the latest 10 day(s).
| Time | Temp. | Humidity | Pressure | Rain* | Wind** | Luminosity | Snow |
|---|---|---|---|---|---|---|---|
| 1777992923 | 25° C | 28% | 1010.1 hPa | 0 mm | - | 218 W/m² | - |
| 1777992622 | 25° C | 29% | 1010.1 hPa | 0 mm | - | 281 W/m² | - |
| 1777992320 | 24.44° C | 29% | 1010 hPa | 0 mm | - | 217 W/m² | - |
| 1777992016 | 24.44° C | 29% | 1009.7 hPa | 0 mm | - | 195 W/m² | - |
| 1777991714 | 23.89° C | 30% | 1009.7 hPa | 0 mm | - | 177 W/m² | - |
| 1777991411 | 23.89° C | 30% | 1009.9 hPa | 0 mm | - | 196 W/m² | - |
| 1777991108 | 23.89° C | 31% | 1009.7 hPa | 0 mm | - | 203 W/m² | - |
| 1777990805 | 23.89° C | 31% | 1009.5 hPa | 0 mm | - | 180 W/m² | - |
| 1777990503 | 22.78° C | 33% | 1009.8 hPa | 0 mm | - | 234 W/m² | - |
| 1777989896 | 22.22° C | 36% | 1009.8 hPa | 0 mm | - | 142 W/m² | - |
| 1777989592 | 21.67° C | 37% | 1009.7 hPa | 0 mm | - | 138 W/m² | - |
| 1777989289 | 21.67° C | 37% | 1009.7 hPa | 0 mm | - | 116 W/m² | - |
| 1777988985 | 21.11° C | 37% | 1009.3 hPa | 0 mm | - | 91 W/m² | - |
| 1777988682 | 21.11° C | 38% | 1009.2 hPa | 0 mm | - | 83 W/m² | - |
| 1777988379 | 21.11° C | 38% | 1009.3 hPa | 0 mm | - | 85 W/m² | - |
| 1777988076 | 20.56° C | 40% | 1009.1 hPa | 0 mm | - | 89 W/m² | - |
| 1777987771 | 20.56° C | 40% | 1009.2 hPa | 0 mm | - | 95 W/m² | - |
| 1777987468 | 20° C | 41% | 1009 hPa | 0 mm | - | 95 W/m² | - |
| 1777987166 | 20° C | 43% | 1009.1 hPa | 0 mm | - | 77 W/m² | - |
| 1777986863 | 19.44° C | 46% | 1009.3 hPa | 0 mm | - | 65 W/m² | - |
| 1777986561 | 18.89° C | 49% | 1009 hPa | 0 mm | - | 55 W/m² | - |
| 1777986259 | 18.89° C | 50% | 1009 hPa | 0 mm | - | 60 W/m² | - |
| 1777985956 | 18.89° C | 50% | 1009 hPa | 0 mm | - | 53 W/m² | - |
| 1777985653 | 18.89° C | 50% | 1008.9 hPa | 0 mm | - | 46 W/m² | - |
| 1777985349 | 18.89° C | 49% | 1009 hPa | 0 mm | - | 38 W/m² | - |
* Rain latest hour (hover to see other rain measurements)
** Current wind speed in m/s (hover to see current wind gust speed)